FW9176 Weather Reports


time (UTC)temp
C
wind
direction
speed
KPH
gust
KPH
rain 1hr
cm
rain 24hr
cm
rain mn
cm
humidity
%
barometer
mb
20260902014556 30 0 0.0 1.6 0.00 0.00 0.00 65 1012.2
20260902013100 30 148 0.0 4.8 0.00 0.00 0.00 64 1011.9
20260902011602 30 171 0.0 4.8 0.00 0.00 0.00 63 1011.6
20260902010059 31 139 0.0 4.8 0.00 0.00 0.00 62 1011.5
20260902004608 31 144 0.0 4.8 0.00 0.00 0.00 61 1011.4
20260902003106 32 177 0.0 4.8 0.00 0.00 0.00 57 1011.4
20260902001607 32 0 0.0 6.4 0.00 0.00 0.00 54 1011.6
20260902000058 33 0 0.0 3.2 0.00 0.00 0.00 51 1011.6
20260901234612 33 0 0.0 4.8 0.00 0.00 0.00 53 1011.6
20260901233105 33 180 0.0 4.8 0.00 0.00 0.00 53 1011.6
20260901231601 33 0 1.6 6.4 0.00 0.00 0.00 54 1011.6
20260901230059 33 0 0.0 4.8 0.00 0.00 0.00 55 1011.6
20260901224604 33 136 0.0 3.2 0.00 0.20 0.00 56 1011.4
20260901223059 33 0 0.0 3.2 0.00 0.20 0.00 55 1011.5
20260901221555 33 150 0.0 3.2 0.00 0.20 0.00 54 1011.5
20260901220118 33 217 0.0 3.2 0.00 0.20 0.00 54 1011.5
20260901214559 33 0 0.0 4.8 0.00 0.20 0.00 53 1011.6
20260901213104 33 0 0.0 6.4 0.00 0.20 0.00 56 1011.6
20260901211554 33 0 0.0 6.4 0.00 0.20 0.00 56 1011.7
20260901210100 34 293 0.0 6.4 0.00 0.20 0.00 56 1011.6
20260901204558 34 311 0.0 4.8 0.00 0.20 0.00 54 1011.8
20260901203103 34 146 0.0 4.8 0.00 0.20 0.00 56 1011.8
20260901201604 33 252 0.0 6.4 0.00 0.20 0.00 54 1011.8
20260901200104 33 124 1.6 6.4 0.00 0.20 0.00 56 1012.1
20260901194607 34 271 0.0 4.8 0.00 0.20 0.00 55 1012.1
20260901193114 34 222 0.0 6.4 0.00 0.20 0.00 54 1012.0
20260901191605 34 314 0.0 9.7 0.00 0.20 0.00 55 1012.0
20260901190100 33 162 0.0 6.4 0.00 0.20 0.00 56 1012.1
20260901184603 34 297 1.6 8.0 0.00 0.20 0.00 56 1012.3
20260901183103 34 0 1.6 6.4 0.00 0.20 0.00 54 1012.4
20260901181556 34 0 0.0 4.8 0.00 0.20 0.00 55 1012.6
20260901174600 33 290 0.0 14.5 0.00 0.20 0.00 58 1012.5
20260901173104 33 249 1.6 12.9 0.00 0.20 0.00 59 1012.7
20260901171601 33 135 0.0 8.0 0.00 0.20 0.00 62 1012.9
20260901170120 32 124 1.6 6.4 0.00 0.20 0.00 61 1012.9
20260901164607 32 165 0.0 6.4 0.00 0.20 0.00 61 1013.2
20260901163056 32 250 0.0 6.4 0.00 0.20 0.00 64 1013.2
20260901161602 31 152 0.0 8.0 0.00 0.20 0.00 65 1013.0
20260901154612 30 149 0.0 4.8 0.00 0.23 0.00 68 1013.0
20260901153103 29 0 0.0 4.8 0.00 0.23 0.00 70 1013.1
20260901151601 28 300 0.0 1.6 0.00 0.23 0.00 70 1013.1
20260901150110 28 0 0.0 4.8 0.00 0.23 0.00 71 1013.1
20260901144601 28 0 0.0 3.2 0.00 0.30 0.00 73 1013.2
20260901143059 27 0 1.6 4.8 0.00 0.30 0.00 73 1013.1
20260901141600 27 172 0.0 4.8 0.00 0.30 0.00 75 1013.0
20260901140109 26 0 0.0 1.6 0.00 0.30 0.00 77 1013.0
20260901134600 26 0 0.0 3.2 0.00 0.61 0.00 78 1012.9
20260901133105 25 0 0.0 0.0 0.00 0.61 0.00 79 1013.1
20260901131601 25 0 0.0 0.0 0.00 0.61 0.00 79 1013.3
20260901124606 25 0 0.0 0.0 0.00 0.64 0.00 81 1013.2
20260901123057 25 0 0.0 0.0 0.00 0.64 0.00 82 1013.1
20260901121606 25 0 0.0 0.0 0.00 0.64 0.00 82 1012.7
20260901120116 25 0 0.0 0.0 0.00 0.64 0.00 81 1012.6
20260901114559 24 0 0.0 0.0 0.00 0.64 0.00 81 1012.5
20260901113115 24 0 0.0 0.0 0.00 0.64 0.00 81 1012.3
20260901111600 24 0 0.0 0.0 0.00 0.64 0.00 81 1012.0
20260901110119 24 0 0.0 0.0 0.00 0.64 0.00 82 1011.9
20260901104602 24 0 0.0 0.0 0.00 0.64 0.00 82 1011.8
20260901103109 25 0 0.0 0.0 0.00 0.64 0.00 81 1011.6
20260901101601 25 0 0.0 0.0 0.00 0.64 0.00 80 1011.9
20260901100105 25 0 0.0 0.0 0.00 0.64 0.00 78 1011.7
20260901094600 25 0 0.0 1.6 0.00 0.64 0.00 77 1011.7
20260901093103 25 0 0.0 3.2 0.00 0.64 0.00 77 1011.7
20260901091605 25 0 0.0 3.2 0.00 0.64 0.00 76 1011.6
20260901090106 26 0 0.0 1.6 0.00 0.64 0.00 75 1011.5
20260901084604 26 0 0.0 3.2 0.00 0.64 0.00 75 1011.4
20260901083101 26 291 0.0 3.2 0.00 0.64 0.00 74 1011.4
20260901081559 26 0 0.0 3.2 0.00 0.64 0.00 73 1011.4
20260901080059 26 0 0.0 3.2 0.00 0.64 0.00 73 1011.3
20260901074603 26 142 0.0 3.2 0.00 0.64 0.00 73 1011.3
20260901073100 26 0 0.0 1.6 0.00 0.64 0.00 74 1011.3
20260901071558 26 0 0.0 1.6 0.00 0.64 0.00 73 1011.4
20260901064602 26 0 0.0 4.8 0.00 0.64 0.00 74 1011.1
20260901063115 26 0 0.0 1.6 0.00 0.64 0.00 74 1011.0
20260901061559 26 0 0.0 3.2 0.00 0.64 0.00 74 1010.8
20260901060106 26 0 0.0 1.6 0.00 0.64 0.00 74 1011.1
20260901054600 26 0 0.0 3.2 0.00 0.64 0.00 74 1011.1
20260901053101 26 182 0.0 3.2 0.00 0.64 0.00 75 1011.0
20260901051618 26 0 0.0 3.2 0.00 0.64 0.00 76 1010.9
20260901050104 26 145 0.0 4.8 0.00 0.64 0.00 77 1011.0
20260901044603 26 0 0.0 1.6 0.00 0.64 0.64 77 1011.1
20260901043105 26 0 0.0 1.6 0.00 0.64 0.64 78 1011.1
20260901041601 26 0 0.0 1.6 0.00 0.64 0.64 79 1011.3
20260901034609 25 157 0.0 3.2 0.00 0.69 0.64 81 1011.1
20260901033114 25 0 0.0 1.6 0.00 0.69 0.64 82 1011.2
20260901031604 25 0 0.0 0.0 0.00 0.69 0.64 84 1011.4
20260901030103 25 0 0.0 0.0 0.00 0.69 0.64 84 1011.4
20260901024607 25 0 0.0 0.0 0.00 0.69 0.64 84 1011.7
20260901023107 25 0 0.0 0.0 0.00 0.69 0.64 84 1011.9
20260901021606 25 0 0.0 0.0 0.00 0.69 0.64 82 1011.7